data;timeIndex;totale;areac
2014-01-01;00:00;858;0
2014-01-01;00:30;1528;0
2014-01-01;01:00;2208;0
2014-01-01;01:30;2317;0
2014-01-01;02:00;2150;0
2014-01-01;02:30;1792;0
2014-01-01;03:00;1600;0
2014-01-01;03:30;1325;0
2014-01-01;04:00;1118;0
2014-01-01;04:30;981;0
2014-01-01;05:00;843;0
2014-01-01;05:30;792;0
2014-01-01;06:00;726;0
2014-01-01;06:30;755;0
2014-01-01;07:00;512;0
2014-01-01;07:30;536;0
2014-01-01;08:00;456;0
2014-01-01;08:30;539;0
2014-01-01;09:00;691;0
2014-01-01;09:30;912;0
2014-01-01;10:00;1194;0
2014-01-01;10:30;1523;0
2014-01-01;11:00;1681;0
2014-01-01;11:30;1855;0
2014-01-01;12:00;2020;0
2014-01-01;12:30;1962;0
2014-01-01;13:00;1758;0
2014-01-01;13:30;1605;0
2014-01-01;14:00;1693;0
2014-01-01;14:30;2192;0
2014-01-01;15:00;2631;0
2014-01-01;15:30;3000;0
2014-01-01;16:00;3290;0
2014-01-01;16:30;3119;0
2014-01-01;17:00;3108;0
2014-01-01;17:30;2770;0
2014-01-01;18:00;2529;0
2014-01-01;18:30;2304;0
2014-01-01;19:00;2091;0
2014-01-01;19:30;1922;0
2014-01-01;20:00;1618;0
2014-01-01;20:30;1342;0
2014-01-01;21:00;1198;0
2014-01-01;21:30;1175;0
2014-01-01;22:00;1169;0
2014-01-01;22:30;1087;0
2014-01-01;23:00;1013;0
2014-01-01;23:30;798;0
2014-01-02;00:00;704;0
2014-01-02;00:30;490;0
2014-01-02;01:00;399;0
2014-01-02;01:30;280;0
2014-01-02;02:00;206;0
2014-01-02;02:30;145;0
2014-01-02;03:00;144;0
2014-01-02;03:30;161;0
2014-01-02;04:00;171;0
2014-01-02;04:30;320;0
2014-01-02;05:00;431;0
2014-01-02;05:30;718;0
2014-01-02;06:00;937;0
2014-01-02;06:30;1524;0
2014-01-02;07:00;2067;0
2014-01-02;07:30;2450;0
2014-01-02;08:00;2745;0
2014-01-02;08:30;3070;0
2014-01-02;09:00;2927;0
2014-01-02;09:30;3154;0
2014-01-02;10:00;3152;0
2014-01-02;10:30;3206;0
2014-01-02;11:00;3291;0
2014-01-02;11:30;3067;0
2014-01-02;12:00;2844;0
2014-01-02;12:30;2737;0
2014-01-02;13:00;2422;0
2014-01-02;13:30;2274;0
2014-01-02;14:00;2700;0
2014-01-02;14:30;3050;0
2014-01-02;15:00;2984;0
2014-01-02;15:30;2909;0
2014-01-02;16:00;3046;0
2014-01-02;16:30;2915;0
2014-01-02;17:00;3099;0
2014-01-02;17:30;3088;0
2014-01-02;18:00;3031;0
2014-01-02;18:30;2824;0
2014-01-02;19:00;2511;0
2014-01-02;19:30;2547;0
2014-01-02;20:00;2173;0
2014-01-02;20:30;1673;0
2014-01-02;21:00;1337;0
2014-01-02;21:30;1310;0
2014-01-02;22:00;1277;0
2014-01-02;22:30;1135;0
2014-01-02;23:00;1094;0
2014-01-02;23:30;1018;0
2014-01-03;00:00;844;0
2014-01-03;00:30;661;0
2014-01-03;01:00;511;0
2014-01-03;01:30;395;0
2014-01-03;02:00;311;0
2014-01-03;02:30;250;0
2014-01-03;03:00;207;0
2014-01-03;03:30;201;0
2014-01-03;04:00;254;0
2014-01-03;04:30;314;0
2014-01-03;05:00;494;0
2014-01-03;05:30;641;0
2014-01-03;06:00;883;0
2014-01-03;06:30;1584;0
2014-01-03;07:00;2129;0
2014-01-03;07:30;2432;0
2014-01-03;08:00;2794;0
2014-01-03;08:30;3376;0
2014-01-03;09:00;3277;0
2014-01-03;09:30;3461;0
2014-01-03;10:00;3551;0
2014-01-03;10:30;3780;0
2014-01-03;11:00;3770;0
2014-01-03;11:30;3562;0
2014-01-03;12:00;3343;0
2014-01-03;12:30;3082;0
2014-01-03;13:00;2899;0
2014-01-03;13:30;2843;0
2014-01-03;14:00;2806;0
2014-01-03;14:30;3134;0
2014-01-03;15:00;3296;0
2014-01-03;15:30;3353;0
2014-01-03;16:00;3323;0
2014-01-03;16:30;3277;0
2014-01-03;17:00;3436;0
2014-01-03;17:30;3351;0
2014-01-03;18:00;3220;0
2014-01-03;18:30;2884;0
2014-01-03;19:00;2754;0
2014-01-03;19:30;2961;0
2014-01-03;20:00;2609;0
2014-01-03;20:30;2086;0
2014-01-03;21:00;1660;0
2014-01-03;21:30;1669;0
2014-01-03;22:00;1680;0
2014-01-03;22:30;1742;0
2014-01-03;23:00;1679;0
2014-01-03;23:30;1565;0
2014-01-04;00:00;1416;0
2014-01-04;00:30;1093;0
2014-01-04;01:00;948;0
2014-01-04;01:30;692;0
2014-01-04;02:00;523;0
2014-01-04;02:30;438;0
2014-01-04;03:00;420;0
2014-01-04;03:30;400;0
2014-01-04;04:00;332;0
2014-01-04;04:30;358;0
2014-01-04;05:00;440;0
2014-01-04;05:30;594;0
2014-01-04;06:00;729;0
2014-01-04;06:30;1152;0
2014-01-04;07:00;1195;0
2014-01-04;07:30;1597;0
2014-01-04;08:00;1640;0
2014-01-04;08:30;1998;0
2014-01-04;09:00;2549;0
2014-01-04;09:30;3297;0
2014-01-04;10:00;3718;0
2014-01-04;10:30;3860;0
2014-01-04;11:00;4016;0
2014-01-04;11:30;4016;0
2014-01-04;12:00;3807;0
2014-01-04;12:30;3600;0
2014-01-04;13:00;3211;0
2014-01-04;13:30;2864;0
2014-01-04;14:00;2901;0
2014-01-04;14:30;3411;0
2014-01-04;15:00;3574;0
2014-01-04;15:30;4003;0
2014-01-04;16:00;4049;0
2014-01-04;16:30;3736;0
2014-01-04;17:00;3729;0
2014-01-04;17:30;3629;0
2014-01-04;18:00;3495;0
2014-01-04;18:30;3356;0
2014-01-04;19:00;3240;0
2014-01-04;19:30;3244;0
2014-01-04;20:00;2995;0
2014-01-04;20:30;2487;0
2014-01-04;21:00;1985;0
2014-01-04;21:30;1888;0
2014-01-04;22:00;1919;0
2014-01-04;22:30;1961;0
2014-01-04;23:00;1940;0
2014-01-04;23:30;2020;0
2014-01-05;00:00;1716;0
2014-01-05;00:30;1391;0
2014-01-05;01:00;1104;0
2014-01-05;01:30;1069;0
2014-01-05;02:00;723;0
2014-01-05;02:30;563;0
2014-01-05;03:00;429;0
2014-01-05;03:30;428;0
2014-01-05;04:00;356;0
2014-01-05;04:30;303;0
2014-01-05;05:00;339;0
2014-01-05;05:30;392;0
2014-01-05;06:00;478;0
2014-01-05;06:30;703;0
2014-01-05;07:00;558;0
2014-01-05;07:30;750;0
2014-01-05;08:00;765;0
2014-01-05;08:30;1032;0
2014-01-05;09:00;1503;0
2014-01-05;09:30;2248;0
2014-01-05;10:00;2486;0
2014-01-05;10:30;2917;0
2014-01-05;11:00;3121;0
2014-01-05;11:30;3296;0
2014-01-05;12:00;3150;0
2014-01-05;12:30;3085;0
2014-01-05;13:00;2726;0
2014-01-05;13:30;2580;0
2014-01-05;14:00;2904;0
2014-01-05;14:30;3330;0
2014-01-05;15:00;3761;0
2014-01-05;15:30;3978;0
2014-01-05;16:00;4063;0
2014-01-05;16:30;4247;0
2014-01-05;17:00;3792;0
2014-01-05;17:30;3692;0
2014-01-05;18:00;3657;0
2014-01-05;18:30;3531;0
2014-01-05;19:00;3318;0
2014-01-05;19:30;3299;0
2014-01-05;20:00;2850;0
2014-01-05;20:30;2161;0
2014-01-05;21:00;1692;0
2014-01-05;21:30;1648;0
2014-01-05;22:00;1707;0
2014-01-05;22:30;1819;0
2014-01-05;23:00;1769;0
2014-01-05;23:30;1639;0
2014-01-06;00:00;1532;0
2014-01-06;00:30;1248;0
2014-01-06;01:00;1038;0
2014-01-06;01:30;803;0
2014-01-06;02:00;539;0
2014-01-06;02:30;478;0
2014-01-06;03:00;357;0
2014-01-06;03:30;317;0
2014-01-06;04:00;321;0
2014-01-06;04:30;372;0
2014-01-06;05:00;402;0
2014-01-06;05:30;488;0
2014-01-06;06:00;548;0
2014-01-06;06:30;778;0
2014-01-06;07:00;627;0
2014-01-06;07:30;774;0
2014-01-06;08:00;882;0
2014-01-06;08:30;1129;0
2014-01-06;09:00;1610;0
2014-01-06;09:30;2366;0
2014-01-06;10:00;3013;0
2014-01-06;10:30;3852;0
2014-01-06;11:00;4122;0
2014-01-06;11:30;4152;0
2014-01-06;12:00;3967;0
2014-01-06;12:30;3925;0
2014-01-06;13:00;3388;0
2014-01-06;13:30;2923;0
2014-01-06;14:00;3237;0
2014-01-06;14:30;3945;0
2014-01-06;15:00;4405;0
2014-01-06;15:30;4763;0
2014-01-06;16:00;4660;0
2014-01-06;16:30;4413;0
2014-01-06;17:00;4446;0
2014-01-06;17:30;4251;0
2014-01-06;18:00;4170;0
2014-01-06;18:30;3514;0
2014-01-06;19:00;3248;0
2014-01-06;19:30;3266;0
2014-01-06;20:00;2840;0
2014-01-06;20:30;2278;0
2014-01-06;21:00;1962;0
2014-01-06;21:30;2022;0
2014-01-06;22:00;2044;0
2014-01-06;22:30;1786;0
2014-01-06;23:00;1587;0
2014-01-06;23:30;1351;0
2014-01-07;00:00;969;0
2014-01-07;00:30;735;0
2014-01-07;01:00;529;0
2014-01-07;01:30;376;0
2014-01-07;02:00;282;0
2014-01-07;02:30;188;0
2014-01-07;03:00;213;0
2014-01-07;03:30;210;0
2014-01-07;04:00;208;0
2014-01-07;04:30;360;0
2014-01-07;05:00;529;0
2014-01-07;05:30;851;0
2014-01-07;06:00;1311;0
2014-01-07;06:30;2632;0
2014-01-07;07:00;4035;0
2014-01-07;07:30;3500;1
2014-01-07;08:00;3876;1
2014-01-07;08:30;4077;1
2014-01-07;09:00;4388;1
2014-01-07;09:30;4132;1
2014-01-07;10:00;3934;1
2014-01-07;10:30;3638;1
2014-01-07;11:00;3440;1
2014-01-07;11:30;3426;1
2014-01-07;12:00;3214;1
2014-01-07;12:30;3028;1
2014-01-07;13:00;2870;1
2014-01-07;13:30;2806;1
2014-01-07;14:00;3013;1
2014-01-07;14:30;3303;1
2014-01-07;15:00;3198;1
2014-01-07;15:30;3285;1
2014-01-07;16:00;3278;1
2014-01-07;16:30;3060;1
2014-01-07;17:00;2976;1
2014-01-07;17:30;3067;1
2014-01-07;18:00;3019;1
2014-01-07;18:30;2977;1
2014-01-07;19:00;2763;1
2014-01-07;19:30;5039;0
2014-01-07;20:00;3847;0
2014-01-07;20:30;2825;0
2014-01-07;21:00;2090;0
2014-01-07;21:30;1781;0
2014-01-07;22:00;1629;0
2014-01-07;22:30;1504;0
2014-01-07;23:00;1457;0
2014-01-07;23:30;1285;0
2014-01-08;00:00;997;0
2014-01-08;00:30;694;0
2014-01-08;01:00;526;0
2014-01-08;01:30;435;0
2014-01-08;02:00;281;0
2014-01-08;02:30;244;0
2014-01-08;03:00;209;0
2014-01-08;03:30;243;0
2014-01-08;04:00;208;0
2014-01-08;04:30;345;0
2014-01-08;05:00;506;0
2014-01-08;05:30;795;0
2014-01-08;06:00;1277;0
2014-01-08;06:30;2502;0
2014-01-08;07:00;4125;0
2014-01-08;07:30;3387;1
2014-01-08;08:00;3903;1
2014-01-08;08:30;4305;1
2014-01-08;09:00;4544;1
2014-01-08;09:30;4455;1
2014-01-08;10:00;4285;1
2014-01-08;10:30;4079;1
2014-01-08;11:00;3776;1
2014-01-08;11:30;3784;1
2014-01-08;12:00;3375;1
2014-01-08;12:30;3285;1
2014-01-08;13:00;3179;1
2014-01-08;13:30;3010;1
2014-01-08;14:00;3324;1
2014-01-08;14:30;3744;1
2014-01-08;15:00;3481;1
2014-01-08;15:30;3577;1
2014-01-08;16:00;3474;1
2014-01-08;16:30;3216;1
2014-01-08;17:00;3127;1
2014-01-08;17:30;3162;1
2014-01-08;18:00;3120;1
2014-01-08;18:30;3061;1
2014-01-08;19:00;2788;1
2014-01-08;19:30;5598;0
2014-01-08;20:00;4110;0
2014-01-08;20:30;3166;0
2014-01-08;21:00;2252;0
2014-01-08;21:30;1993;0
2014-01-08;22:00;1933;0
2014-01-08;22:30;1817;0
2014-01-08;23:00;1753;0
2014-01-08;23:30;1607;0
2014-01-09;00:00;1200;0
2014-01-09;00:30;933;0
2014-01-09;01:00;652;0
2014-01-09;01:30;498;0
2014-01-09;02:00;372;0
2014-01-09;02:30;291;0
2014-01-09;03:00;271;0
2014-01-09;03:30;232;0
2014-01-09;04:00;253;0
2014-01-09;04:30;355;0
2014-01-09;05:00;560;0
2014-01-09;05:30;880;0
2014-01-09;06:00;1257;0
2014-01-09;06:30;2583;0
2014-01-09;07:00;4146;0
2014-01-09;07:30;3411;1
2014-01-09;08:00;4193;1
2014-01-09;08:30;4326;1
2014-01-09;09:00;4822;1
2014-01-09;09:30;4682;1
2014-01-09;10:00;4303;1
2014-01-09;10:30;4115;1
2014-01-09;11:00;4015;1
2014-01-09;11:30;3852;1
2014-01-09;12:00;3493;1
2014-01-09;12:30;3463;1
2014-01-09;13:00;3171;1
2014-01-09;13:30;3191;1
2014-01-09;14:00;3340;1
2014-01-09;14:30;3708;1
2014-01-09;15:00;3626;1
2014-01-09;15:30;3635;1
2014-01-09;16:00;3634;1
2014-01-09;16:30;3401;1
2014-01-09;17:00;3257;1
2014-01-09;17:30;3195;1
2014-01-09;18:00;4387;0
2014-01-09;18:30;4184;0
2014-01-09;19:00;3946;0
2014-01-09;19:30;5040;0
2014-01-09;20:00;4649;0
2014-01-09;20:30;3524;0
2014-01-09;21:00;2670;0
2014-01-09;21:30;2118;0
2014-01-09;22:00;2008;0
2014-01-09;22:30;1936;0
2014-01-09;23:00;1890;0
2014-01-09;23:30;1758;0
2014-01-10;00:00;1400;0
2014-01-10;00:30;1063;0
2014-01-10;01:00;780;0
2014-01-10;01:30;584;0
2014-01-10;02:00;448;0
2014-01-10;02:30;340;0
2014-01-10;03:00;280;0
2014-01-10;03:30;253;0
2014-01-10;04:00;320;0
2014-01-10;04:30;399;0
2014-01-10;05:00;587;0
2014-01-10;05:30;833;0
2014-01-10;06:00;1185;0
2014-01-10;06:30;2479;0
2014-01-10;07:00;4221;0
2014-01-10;07:30;3394;1
2014-01-10;08:00;4208;1
2014-01-10;08:30;4479;1
2014-01-10;09:00;4817;1
2014-01-10;09:30;4833;1
2014-01-10;10:00;4520;1
2014-01-10;10:30;4294;1
2014-01-10;11:00;4252;1
2014-01-10;11:30;4023;1
2014-01-10;12:00;3742;1
2014-01-10;12:30;3656;1
2014-01-10;13:00;3482;1
2014-01-10;13:30;3399;1
2014-01-10;14:00;3611;1
2014-01-10;14:30;3787;1
2014-01-10;15:00;3803;1
2014-01-10;15:30;3713;1
2014-01-10;16:00;3683;1
2014-01-10;16:30;3620;1
2014-01-10;17:00;3477;1
2014-01-10;17:30;3465;1
2014-01-10;18:00;3409;1
2014-01-10;18:30;3255;1
2014-01-10;19:00;3040;1
2014-01-10;19:30;5846;0
2014-01-10;20:00;4779;0
2014-01-10;20:30;4045;0
2014-01-10;21:00;3366;0
2014-01-10;21:30;2766;0
2014-01-10;22:00;2821;0
2014-01-10;22:30;2826;0
2014-01-10;23:00;2791;0
2014-01-10;23:30;2624;0
2014-01-11;00:00;2511;0
2014-01-11;00:30;2201;0
2014-01-11;01:00;1735;0
2014-01-11;01:30;1307;0
2014-01-11;02:00;1131;0
2014-01-11;02:30;958;0
2014-01-11;03:00;796;0
2014-01-11;03:30;605;0
2014-01-11;04:00;597;0
2014-01-11;04:30;637;0
2014-01-11;05:00;707;0
2014-01-11;05:30;758;0
2014-01-11;06:00;880;0
2014-01-11;06:30;1341;0
2014-01-11;07:00;1431;0
2014-01-11;07:30;2534;0
2014-01-11;08:00;2554;0
2014-01-11;08:30;3064;0
2014-01-11;09:00;3629;0
2014-01-11;09:30;4376;0
2014-01-11;10:00;4787;0
2014-01-11;10:30;5143;0
2014-01-11;11:00;5041;0
2014-01-11;11:30;5058;0
2014-01-11;12:00;5001;0
2014-01-11;12:30;4912;0
2014-01-11;13:00;4501;0
2014-01-11;13:30;3782;0
2014-01-11;14:00;3778;0
2014-01-11;14:30;4202;0
2014-01-11;15:00;4527;0
2014-01-11;15:30;4940;0
2014-01-11;16:00;5299;0
2014-01-11;16:30;5201;0
2014-01-11;17:00;5007;0
2014-01-11;17:30;5000;0
2014-01-11;18:00;4828;0
2014-01-11;18:30;4644;0
2014-01-11;19:00;4532;0
2014-01-11;19:30;4862;0
2014-01-11;20:00;4997;0
2014-01-11;20:30;4549;0
2014-01-11;21:00;3660;0
2014-01-11;21:30;3112;0
2014-01-11;22:00;3070;0
2014-01-11;22:30;3090;0
2014-01-11;23:00;3214;0
2014-01-11;23:30;3391;0
2014-01-12;00:00;3409;0
2014-01-12;00:30;2996;0
2014-01-12;01:00;2458;0
2014-01-12;01:30;1950;0
2014-01-12;02:00;1410;0
2014-01-12;02:30;1194;0
2014-01-12;03:00;856;0
2014-01-12;03:30;734;0
2014-01-12;04:00;649;0
2014-01-12;04:30;614;0
2014-01-12;05:00;610;0
2014-01-12;05:30;567;0
2014-01-12;06:00;570;0
2014-01-12;06:30;819;0
2014-01-12;07:00;673;0
2014-01-12;07:30;951;0
2014-01-12;08:00;1239;0
2014-01-12;08:30;1956;0
2014-01-12;09:00;2401;0
2014-01-12;09:30;2911;0
2014-01-12;10:00;3420;0
2014-01-12;10:30;3608;0
2014-01-12;11:00;3907;0
2014-01-12;11:30;3915;0
2014-01-12;12:00;3711;0
2014-01-12;12:30;3827;0
2014-01-12;13:00;3437;0
2014-01-12;13:30;2959;0
2014-01-12;14:00;3041;0
2014-01-12;14:30;4064;0
2014-01-12;15:00;4631;0
2014-01-12;15:30;4935;0
2014-01-12;16:00;5052;0
2014-01-12;16:30;4897;0
2014-01-12;17:00;4766;0
2014-01-12;17:30;4717;0
2014-01-12;18:00;4489;0
2014-01-12;18:30;4285;0
2014-01-12;19:00;4276;0
2014-01-12;19:30;3930;0
2014-01-12;20:00;3772;0
2014-01-12;20:30;2720;0
2014-01-12;21:00;2205;0
2014-01-12;21:30;2120;0
2014-01-12;22:00;2006;0
2014-01-12;22:30;2168;0
2014-01-12;23:00;1817;0
2014-01-12;23:30;1547;0
2014-01-13;00:00;1229;0
2014-01-13;00:30;954;0
2014-01-13;01:00;648;0
2014-01-13;01:30;506;0
2014-01-13;02:00;412;0
2014-01-13;02:30;336;0
2014-01-13;03:00;268;0
2014-01-13;03:30;230;0
2014-01-13;04:00;270;0
2014-01-13;04:30;369;0
2014-01-13;05:00;573;0
2014-01-13;05:30;924;0
2014-01-13;06:00;1336;0
2014-01-13;06:30;2580;0
2014-01-13;07:00;4227;0
2014-01-13;07:30;3347;1
2014-01-13;08:00;4175;1
2014-01-13;08:30;4619;1
2014-01-13;09:00;4842;1
2014-01-13;09:30;4621;1
2014-01-13;10:00;4372;1
2014-01-13;10:30;4392;1
2014-01-13;11:00;4122;1
2014-01-13;11:30;4067;1
2014-01-13;12:00;3618;1
2014-01-13;12:30;3529;1
2014-01-13;13:00;3539;1
2014-01-13;13:30;3344;1
2014-01-13;14:00;3574;1
2014-01-13;14:30;3903;1
2014-01-13;15:00;3938;1
2014-01-13;15:30;3782;1
2014-01-13;16:00;3778;1
2014-01-13;16:30;3804;1
2014-01-13;17:00;3611;1
2014-01-13;17:30;3630;1
2014-01-13;18:00;3443;1
2014-01-13;18:30;3622;1
2014-01-13;19:00;3392;1
2014-01-13;19:30;5980;0
2014-01-13;20:00;4666;0
2014-01-13;20:30;3598;0
2014-01-13;21:00;2618;0
2014-01-13;21:30;2062;0
2014-01-13;22:00;1947;0
2014-01-13;22:30;1979;0
2014-01-13;23:00;1975;0
2014-01-13;23:30;1710;0
2014-01-14;00:00;1348;0
2014-01-14;00:30;960;0
2014-01-14;01:00;663;0
2014-01-14;01:30;529;0
2014-01-14;02:00;381;0
2014-01-14;02:30;310;0
2014-01-14;03:00;230;0
2014-01-14;03:30;231;0
2014-01-14;04:00;263;0
2014-01-14;04:30;406;0
2014-01-14;05:00;544;0
2014-01-14;05:30;957;0
2014-01-14;06:00;1379;0
2014-01-14;06:30;2722;0
2014-01-14;07:00;4561;0
2014-01-14;07:30;3951;1
2014-01-14;08:00;4765;1
2014-01-14;08:30;5051;1
2014-01-14;09:00;5403;1
2014-01-14;09:30;5453;1
2014-01-14;10:00;5225;1
2014-01-14;10:30;5186;1
2014-01-14;11:00;4662;1
2014-01-14;11:30;4392;1
2014-01-14;12:00;3888;1
2014-01-14;12:30;4054;1
2014-01-14;13:00;3795;1
2014-01-14;13:30;3575;1
2014-01-14;14:00;3834;1
2014-01-14;14:30;4204;1
2014-01-14;15:00;3898;1
2014-01-14;15:30;4088;1
2014-01-14;16:00;4175;1
2014-01-14;16:30;3860;1
2014-01-14;17:00;3695;1
2014-01-14;17:30;3602;1
2014-01-14;18:00;3628;1
2014-01-14;18:30;3552;1
2014-01-14;19:00;3374;1
2014-01-14;19:30;6318;0
2014-01-14;20:00;4947;0
2014-01-14;20:30;3841;0
2014-01-14;21:00;2679;0
2014-01-14;21:30;2224;0
2014-01-14;22:00;2062;0
2014-01-14;22:30;2158;0
2014-01-14;23:00;2021;0
2014-01-14;23:30;1971;0
2014-01-15;00:00;1502;0
2014-01-15;00:30;1042;0
2014-01-15;01:00;759;0
2014-01-15;01:30;539;0
2014-01-15;02:00;391;0
2014-01-15;02:30;342;0
2014-01-15;03:00;279;0
2014-01-15;03:30;254;0
2014-01-15;04:00;274;0
2014-01-15;04:30;359;0
2014-01-15;05:00;569;0
2014-01-15;05:30;978;0
2014-01-15;06:00;1349;0
2014-01-15;06:30;2593;0
2014-01-15;07:00;4390;0
2014-01-15;07:30;3532;1
2014-01-15;08:00;4370;1
2014-01-15;08:30;4762;1
2014-01-15;09:00;5074;1
2014-01-15;09:30;5048;1
2014-01-15;10:00;4826;1
2014-01-15;10:30;4757;1
2014-01-15;11:00;4310;1
2014-01-15;11:30;4016;1
2014-01-15;12:00;3804;1
2014-01-15;12:30;3683;1
2014-01-15;13:00;3418;1
2014-01-15;13:30;3529;1
2014-01-15;14:00;3568;1
2014-01-15;14:30;3836;1
2014-01-15;15:00;4017;1
2014-01-15;15:30;3928;1
2014-01-15;16:00;3892;1
2014-01-15;16:30;3783;1
2014-01-15;17:00;3549;1
2014-01-15;17:30;3665;1
2014-01-15;18:00;3572;1
2014-01-15;18:30;3486;1
2014-01-15;19:00;3176;1
2014-01-15;19:30;6067;0
2014-01-15;20:00;5163;0
2014-01-15;20:30;4211;0
2014-01-15;21:00;2954;0
2014-01-15;21:30;2286;0
2014-01-15;22:00;2209;0
2014-01-15;22:30;2052;0
2014-01-15;23:00;2124;0
2014-01-15;23:30;1979;0
2014-01-16;00:00;1674;0
2014-01-16;00:30;1259;0
2014-01-16;01:00;776;0
2014-01-16;01:30;563;0
2014-01-16;02:00;431;0
2014-01-16;02:30;363;0
2014-01-16;03:00;324;0
2014-01-16;03:30;285;0
2014-01-16;04:00;298;0
2014-01-16;04:30;400;0
2014-01-16;05:00;567;0
2014-01-16;05:30;901;0
2014-01-16;06:00;1321;0
2014-01-16;06:30;2651;0
2014-01-16;07:00;4305;0
2014-01-16;07:30;3563;1
2014-01-16;08:00;4433;1
2014-01-16;08:30;4594;1
2014-01-16;09:00;5149;1
2014-01-16;09:30;5137;1
2014-01-16;10:00;4940;1
2014-01-16;10:30;4775;1
2014-01-16;11:00;4516;1
2014-01-16;11:30;4298;1
2014-01-16;12:00;4080;1
2014-01-16;12:30;3875;1
2014-01-16;13:00;3639;1
2014-01-16;13:30;3874;1
2014-01-16;14:00;4104;1
2014-01-16;14:30;4269;1
2014-01-16;15:00;3983;1
2014-01-16;15:30;4179;1
2014-01-16;16:00;4124;1
2014-01-16;16:30;3961;1
2014-01-16;17:00;3820;1
2014-01-16;17:30;3723;1
2014-01-16;18:00;5043;0
2014-01-16;18:30;5051;0
2014-01-16;19:00;4806;0
2014-01-16;19:30;6007;0
2014-01-16;20:00;5592;0
2014-01-16;20:30;4682;0
2014-01-16;21:00;3270;0
2014-01-16;21:30;2551;0
2014-01-16;22:00;2278;0
2014-01-16;22:30;2310;0
2014-01-16;23:00;2407;0
2014-01-16;23:30;2276;0
2014-01-17;00:00;1906;0
2014-01-17;00:30;1444;0
2014-01-17;01:00;965;0
2014-01-17;01:30;736;0
2014-01-17;02:00;542;0
2014-01-17;02:30;422;0
2014-01-17;03:00;316;0
2014-01-17;03:30;329;0
2014-01-17;04:00;360;0
2014-01-17;04:30;445;0
2014-01-17;05:00;596;0
2014-01-17;05:30;934;0
2014-01-17;06:00;1332;0
2014-01-17;06:30;2700;0
2014-01-17;07:00;4464;0
2014-01-17;07:30;3868;1
2014-01-17;08:00;4726;1
2014-01-17;08:30;5198;1
2014-01-17;09:00;5540;1
2014-01-17;09:30;5625;1
2014-01-17;10:00;5114;1
2014-01-17;10:30;4989;1
2014-01-17;11:00;4649;1
2014-01-17;11:30;4281;1
2014-01-17;12:00;4140;1
2014-01-17;12:30;4052;1
2014-01-17;13:00;3746;1
2014-01-17;13:30;3728;1
2014-01-17;14:00;3909;1
2014-01-17;14:30;4252;1
2014-01-17;15:00;4267;1
2014-01-17;15:30;4166;1
2014-01-17;16:00;4067;1
2014-01-17;16:30;3983;1
2014-01-17;17:00;3869;1
2014-01-17;17:30;3817;1
2014-01-17;18:00;3667;1
2014-01-17;18:30;3564;1
2014-01-17;19:00;3555;1
2014-01-17;19:30;6085;0
2014-01-17;20:00;5207;0
2014-01-17;20:30;4317;0
2014-01-17;21:00;3518;0
2014-01-17;21:30;2892;0
2014-01-17;22:00;2768;0
2014-01-17;22:30;2802;0
2014-01-17;23:00;2961;0
2014-01-17;23:30;2921;0
2014-01-18;00:00;2746;0
2014-01-18;00:30;2197;0
2014-01-18;01:00;1822;0
2014-01-18;01:30;1408;0
2014-01-18;02:00;1170;0
2014-01-18;02:30;972;0
2014-01-18;03:00;775;0
2014-01-18;03:30;759;0
2014-01-18;04:00;675;0
2014-01-18;04:30;605;0
2014-01-18;05:00;782;0
2014-01-18;05:30;796;0
2014-01-18;06:00;889;0
2014-01-18;06:30;1259;0
2014-01-18;07:00;1488;0
2014-01-18;07:30;2301;0
2014-01-18;08:00;2442;0
2014-01-18;08:30;3084;0
2014-01-18;09:00;3536;0
2014-01-18;09:30;4310;0
2014-01-18;10:00;4807;0
2014-01-18;10:30;5096;0
2014-01-18;11:00;5130;0
2014-01-18;11:30;5224;0
2014-01-18;12:00;5131;0
2014-01-18;12:30;4948;0
2014-01-18;13:00;4389;0
2014-01-18;13:30;3717;0
2014-01-18;14:00;3702;0
2014-01-18;14:30;4502;0
2014-01-18;15:00;4473;0
2014-01-18;15:30;4849;0
2014-01-18;16:00;4912;0
2014-01-18;16:30;4811;0
2014-01-18;17:00;4872;0
2014-01-18;17:30;4847;0
2014-01-18;18:00;4734;0
2014-01-18;18:30;4503;0
2014-01-18;19:00;4587;0
2014-01-18;19:30;4896;0
2014-01-18;20:00;5163;0
2014-01-18;20:30;4594;0
2014-01-18;21:00;3503;0
2014-01-18;21:30;2970;0
2014-01-18;22:00;2796;0
2014-01-18;22:30;2828;0
2014-01-18;23:00;2995;0
2014-01-18;23:30;3310;0
2014-01-19;00:00;3325;0
2014-01-19;00:30;3168;0
2014-01-19;01:00;2361;0
2014-01-19;01:30;1926;0
2014-01-19;02:00;1539;0
2014-01-19;02:30;1189;0
2014-01-19;03:00;864;0
2014-01-19;03:30;794;0
2014-01-19;04:00;692;0
2014-01-19;04:30;610;0
2014-01-19;05:00;594;0
2014-01-19;05:30;582;0
2014-01-19;06:00;590;0
2014-01-19;06:30;751;0
2014-01-19;07:00;610;0
2014-01-19;07:30;789;0
2014-01-19;08:00;922;0
2014-01-19;08:30;1370;0
2014-01-19;09:00;1693;0
2014-01-19;09:30;2337;0
2014-01-19;10:00;2833;0
2014-01-19;10:30;3301;0
2014-01-19;11:00;3511;0
2014-01-19;11:30;3377;0
2014-01-19;12:00;3529;0
2014-01-19;12:30;3623;0
2014-01-19;13:00;3190;0
2014-01-19;13:30;2645;0
2014-01-19;14:00;2872;0
2014-01-19;14:30;3465;0
2014-01-19;15:00;3813;0
2014-01-19;15:30;3834;0
2014-01-19;16:00;3970;0
2014-01-19;16:30;3834;0
2014-01-19;17:00;4165;0
2014-01-19;17:30;4131;0
2014-01-19;18:00;4257;0
2014-01-19;18:30;4048;0
2014-01-19;19:00;4217;0
2014-01-19;19:30;4150;0
2014-01-19;20:00;3552;0
2014-01-19;20:30;2796;0
2014-01-19;21:00;1973;0
2014-01-19;21:30;1846;0
2014-01-19;22:00;1877;0
2014-01-19;22:30;1962;0
2014-01-19;23:00;1988;0
2014-01-19;23:30;1629;0
2014-01-20;00:00;1278;0
2014-01-20;00:30;866;0
2014-01-20;01:00;652;0
2014-01-20;01:30;455;0
2014-01-20;02:00;345;0
2014-01-20;02:30;250;0
2014-01-20;03:00;224;0
2014-01-20;03:30;224;0
2014-01-20;04:00;285;0
2014-01-20;04:30;364;0
2014-01-20;05:00;563;0
2014-01-20;05:30;984;0
2014-01-20;06:00;1394;0
2014-01-20;06:30;2656;0
2014-01-20;07:00;4485;0
2014-01-20;07:30;3766;1
2014-01-20;08:00;4411;1
2014-01-20;08:30;4616;1
2014-01-20;09:00;4998;1
2014-01-20;09:30;4789;1
2014-01-20;10:00;4494;1
2014-01-20;10:30;4304;1
2014-01-20;11:00;4211;1
2014-01-20;11:30;4005;1
2014-01-20;12:00;3489;1
2014-01-20;12:30;3415;1
2014-01-20;13:00;3339;1
2014-01-20;13:30;3258;1
2014-01-20;14:00;3557;1
2014-01-20;14:30;3984;1
2014-01-20;15:00;3648;1
2014-01-20;15:30;3812;1
2014-01-20;16:00;3596;1
2014-01-20;16:30;3608;1
2014-01-20;17:00;3630;1
2014-01-20;17:30;3503;1
2014-01-20;18:00;3376;1
2014-01-20;18:30;3522;1
2014-01-20;19:00;3279;1
2014-01-20;19:30;5845;0
2014-01-20;20:00;4559;0
2014-01-20;20:30;3600;0
2014-01-20;21:00;2435;0
2014-01-20;21:30;2032;0
2014-01-20;22:00;1859;0
2014-01-20;22:30;1908;0
2014-01-20;23:00;1805;0
2014-01-20;23:30;1537;0
2014-01-21;00:00;1296;0
2014-01-21;00:30;939;0
2014-01-21;01:00;567;0
2014-01-21;01:30;374;0
2014-01-21;02:00;283;0
2014-01-21;02:30;243;0
2014-01-21;03:00;212;0
2014-01-21;03:30;210;0